Retour au catalogue

TITAN 3C TRANSTAGE DEB

LostGEO
NORAD 38694·DEBRIS·🇺🇸 United States

Lancé Sep 26, 1968 depuis Cape Canaveral Space Force Station

Loading…

TLE

PériméSource: Space-Track

Époque: Apr 12, 2026, 08:23 UTC

1 38694U 68081U   26102.34978564 -.00000134  00000-0  00000-0 0  9999
2 38694   1.6808  69.1565 0083413  48.9686 312.1496  1.03485984 43383

Suivez TITAN 3C TRANSTAGE DEB en temps réel avec AllMySat

Download on the App Store